GW7256 Weather Reports


time (UTC)temp
C
wind
direction
speed
KPH
gust
KPH
rain 1hr
cm
rain 24hr
cm
rain mn
cm
humidity
%
barometer
mb
20260508025635 11 291 0.0 1.6 0.00 2.49 2.49 94 1011.1
20260508025132 11 291 0.0 0.0 0.00 2.49 2.49 93 1011.3
20260508024628 11 291 0.0 0.0 0.00 2.49 2.49 93 1011.0
20260508024125 11 291 0.0 0.0 0.00 2.49 2.49 93 1010.9
20260508023621 11 292 1.6 1.6 0.00 2.49 2.49 93 1011.0
20260508023119 11 292 0.0 0.0 0.00 2.49 2.49 93 1010.9
20260508022615 11 292 0.0 0.0 0.00 2.49 2.49 92 1010.6
20260508022112 11 178 1.6 1.6 0.00 2.49 2.49 93 1011.0
20260508021608 11 182 0.0 0.0 0.00 2.49 2.49 94 1010.6
20260508021104 11 182 0.0 0.0 0.00 2.49 2.49 94 1011.0
20260508020601 11 182 0.0 0.0 0.00 2.49 2.49 93 1011.1
20260508020059 12 182 0.0 0.0 0.00 2.49 2.49 93 1010.9
20260508015556 12 182 0.0 0.0 0.00 2.49 2.49 92 1010.8
20260508015053 12 167 1.6 1.6 0.00 2.49 2.49 92 1010.5
20260508014549 12 195 0.0 1.6 0.00 2.49 2.49 92 1010.1
20260508014046 12 157 0.0 0.0 0.00 2.49 2.49 93 1010.4
20260508013542 12 156 0.0 0.0 0.00 2.49 2.49 92 1010.2
20260508013039 12 156 0.0 1.6 0.00 2.49 2.49 92 1010.1
20260508012536 12 163 0.0 0.0 0.00 2.49 2.49 92 1010.1
20260508012034 12 171 1.6 1.6 0.00 2.49 2.49 91 1010.0
20260508011532 12 150 0.0 0.0 0.00 2.49 2.49 91 1010.3
20260508011029 12 150 0.0 0.0 0.00 2.49 2.49 91 1010.0
20260508010525 12 150 0.0 1.6 0.00 2.49 2.49 91 1010.3
20260508010023 12 150 0.0 0.0 0.00 2.49 2.49 91 1010.0
20260508005520 12 146 0.0 0.0 0.00 2.49 2.49 91 1010.0
20260508005017 12 205 1.6 1.6 0.00 2.49 2.49 91 1009.8
20260508004513 12 143 0.0 1.6 0.00 2.49 2.49 91 1009.7
20260508004010 12 162 0.0 0.0 0.00 2.49 2.49 91 1009.9
20260508003506 12 164 0.0 1.6 0.00 2.49 2.49 90 1010.2
20260508003004 12 27 1.6 3.2 0.00 2.49 2.49 90 1010.0
20260508002459 12 300 1.6 3.2 0.00 2.49 2.49 90 1010.0
20260508001956 12 180 0.0 3.2 0.00 2.49 2.49 90 1009.4
20260508001452 12 186 1.6 3.2 0.00 2.49 2.49 90 1009.4
20260508000949 12 223 3.2 3.2 0.00 2.49 2.49 90 1009.0
20260508000444 12 245 1.6 4.8 0.00 2.49 2.49 89 1009.0
20260507235942 12 200 1.6 1.6 0.00 2.49 2.49 90 1009.3
20260507235438 12 149 0.0 0.0 0.00 2.49 2.49 91 1009.0
20260507234936 12 149 0.0 1.6 0.00 2.49 2.49 89 1008.9
20260507234432 12 150 0.0 1.6 0.00 2.49 2.49 90 1009.0
20260507233929 12 136 0.0 1.6 0.00 2.49 2.49 90 1008.8
20260507233426 12 154 0.0 1.6 0.00 2.49 2.49 90 1009.0
20260507232925 12 146 0.0 1.6 0.00 2.49 2.49 89 1008.7
20260507232420 12 146 0.0 6.4 0.00 2.49 2.49 89 1008.6
20260507231918 12 225 3.2 3.2 0.00 2.49 2.49 89 1008.9
20260507231414 12 136 0.0 3.2 0.00 2.49 2.49 89 1009.0
20260507230911 12 173 1.6 1.6 0.00 2.49 2.49 89 1009.0
20260507230408 12 156 0.0 4.8 0.00 2.49 2.49 89 1008.9
20260507225908 12 268 3.2 3.2 0.00 2.49 2.49 89 1008.7
20260507225405 12 148 0.0 1.6 0.00 2.49 2.49 89 1008.9
20260507224901 12 191 1.6 3.2 0.00 2.49 2.49 89 1008.4
20260507224357 12 262 1.6 4.8 0.00 2.49 2.49 87 1008.5
20260507223854 12 233 3.2 4.8 0.00 2.49 2.49 87 1008.4
20260507223350 12 286 3.2 4.8 0.00 2.49 2.49 88 1008.5
20260507222847 12 41 6.4 11.3 0.00 2.49 2.49 87 1008.4
20260507222343 12 193 1.6 9.7 0.00 2.49 2.49 87 1008.7
20260507221840 12 190 1.6 3.2 0.00 2.49 2.49 87 1008.5
20260507221337 12 301 3.2 4.8 0.00 2.49 2.49 87 1008.7
20260507220833 12 147 1.6 3.2 0.00 2.49 2.49 87 1008.7
20260507220331 12 144 1.6 4.8 0.00 2.49 2.49 87 1008.6
20260507215827 12 7 6.4 9.7 0.00 2.49 2.49 87 1008.4
20260507215325 12 305 6.4 9.7 0.00 2.49 2.49 88 1008.3
20260507214822 12 238 3.2 9.7 0.00 2.49 2.49 88 1008.6
20260507214320 12 137 3.2 4.8 0.00 2.49 2.49 88 1008.4
20260507213819 12 154 3.2 3.2 0.00 2.49 2.49 88 1008.4
20260507213317 12 150 1.6 6.4 0.00 2.49 2.49 89 1008.5
20260507212814 12 171 0.0 9.7 0.00 2.49 2.49 89 1008.4
20260507212310 12 0 6.4 6.4 0.00 2.49 2.49 89 1008.5
20260507211806 12 226 0.0 3.2 0.00 2.49 2.49 90 1008.3
20260507211303 12 212 3.2 11.3 0.00 2.49 2.49 89 1008.2
20260507210800 12 122 0.0 6.4 0.00 2.49 2.49 89 1008.1
20260507210257 12 303 8.0 14.5 0.00 2.49 2.49 88 1008.0
20260507205753 12 326 6.4 17.7 0.00 2.49 2.49 90 1007.8
20260507205250 12 333 6.4 11.3 0.00 2.49 2.49 89 1007.9
20260507204746 12 179 0.0 1.6 0.00 2.49 2.49 92 1007.9
20260507204244 12 198 1.6 1.6 0.00 2.49 2.49 91 1007.9
20260507203742 12 36 3.2 12.9 0.00 2.49 2.49 90 1007.9
20260507203239 12 186 3.2 11.3 0.00 2.49 2.49 90 1007.8
20260507202735 12 158 1.6 6.4 0.00 2.49 2.49 91 1007.7
20260507202231 13 188 1.6 4.8 0.00 2.49 2.49 92 1007.6
20260507201726 13 257 4.8 6.4 0.00 2.49 2.49 92 1007.4
20260507201224 13 1 4.8 6.4 0.00 2.49 2.49 93 1007.4
20260507200720 13 262 3.2 3.2 0.00 2.49 2.49 93 1007.5
20260507200216 13 181 0.0 3.2 0.00 2.49 2.49 93 1007.6
20260507195712 13 150 1.6 6.4 0.00 2.49 2.49 94 1007.3
20260507195210 13 354 6.4 9.7 0.00 2.49 2.49 93 1007.5
20260507194707 13 329 8.0 11.3 0.00 2.49 2.49 93 1007.6
20260507194202 13 14 4.8 6.4 0.00 2.49 2.49 93 1007.5
20260507193659 13 252 6.4 11.3 0.00 2.49 2.49 93 1007.5
20260507193156 13 288 6.4 6.4 0.00 2.49 2.49 93 1007.8
20260507192652 13 336 8.0 11.3 0.00 2.49 2.49 92 1007.4
20260507192149 14 344 4.8 6.4 0.00 2.49 2.49 92 1007.5
20260507191645 14 297 6.4 9.7 0.00 2.49 2.49 93 1007.4
20260507191142 14 294 6.4 11.3 0.00 2.49 2.49 93 1007.2
20260507190639 14 181 1.6 4.8 0.13 2.49 2.49 93 1007.3
20260507190138 14 262 4.8 4.8 0.13 2.49 2.49 92 1006.8
20260507185636 14 24 3.2 4.8 0.00 2.46 2.46 93 1007.1
20260507185132 14 278 1.6 6.4 0.00 2.46 2.46 92 1007.4
20260507184630 15 234 1.6 6.4 0.00 2.46 2.46 93 1007.5
20260507184128 15 27 3.2 11.3 0.00 2.46 2.46 93 1007.5
20260507183624 15 165 0.0 1.6 0.00 2.46 2.46 93 1006.7
20260507183121 15 172 1.6 1.6 0.00 2.46 2.46 93 1006.7
20260507182617 15 184 3.2 6.4 0.00 2.46 2.46 93 1006.6
20260507182113 15 272 4.8 6.4 0.00 2.46 2.46 93 1006.6
20260507181610 15 246 6.4 6.4 0.18 2.46 2.46 93 1006.5
20260507181107 15 287 1.6 4.8 0.36 2.46 2.46 92 1006.7
20260507180603 15 273 4.8 14.5 0.18 2.44 2.44 92 1007.3
20260507180100 15 233 4.8 14.5 0.30 2.44 2.44 92 1007.5
20260507175556 16 160 1.6 4.8 0.00 2.39 2.39 92 1007.2
20260507175054 16 204 3.2 11.3 0.00 2.39 2.39 92 1007.6
20260507174551 16 318 4.8 14.5 0.00 2.39 2.39 91 1007.0
20260507174048 17 318 6.4 9.7 0.00 2.39 2.39 89 1006.6
20260507173545 19 152 1.6 3.2 0.00 2.39 2.39 85 1006.4
20260507173042 21 127 1.6 12.9 0.00 2.39 2.39 91 1006.1
20260507172538 21 126 0.0 1.6 0.00 2.39 2.39 91 1006.0
20260507172035 21 120 1.6 1.6 0.00 2.39 2.39 91 1005.9
20260507171530 21 124 0.0 0.0 0.18 2.39 2.39 93 1006.1
20260507171028 20 123 1.6 1.6 0.18 2.39 2.39 93 1005.8
20260507170525 20 119 1.6 3.2 0.00 2.36 2.36 93 1006.1
20260507170022 20 119 1.6 1.6 0.00 2.36 2.36 94 1006.3
20260507165517 20 119 0.0 0.0 0.00 2.36 2.36 93 1006.5
20260507165014 20 117 1.6 1.6 0.13 2.36 2.36 93 1006.7
20260507164510 20 117 0.0 1.6 0.13 2.36 2.36 92 1007.1
20260507164008 20 117 0.0 0.0 0.00 2.34 2.34 93 1007.1
20260507163504 20 117 0.0 0.0 0.00 2.34 2.34 94 1007.2
20260507163002 20 117 0.0 0.0 0.00 2.34 2.34 93 1007.4
20260507162457 20 117 0.0 0.0 0.00 2.34 2.34 93 1007.4
20260507161954 20 117 0.0 0.0 0.00 2.34 2.34 93 1007.5
20260507161450 20 117 0.0 1.6 0.00 2.34 2.34 92 1007.5
20260507160947 20 117 0.0 0.0 0.00 2.34 2.34 92 1007.5
20260507160443 21 117 0.0 0.0 0.00 2.34 2.34 92 1007.9
20260507155939 21 117 0.0 0.0 0.00 2.34 2.34 92 1007.6
20260507155435 21 117 0.0 0.0 0.00 2.34 2.34 93 1007.2
20260507154932 20 117 0.0 0.0 0.00 2.34 2.34 93 1007.3
20260507154429 20 117 0.0 1.6 0.00 2.34 2.34 93 1006.8
20260507153927 20 122 0.0 0.0 0.00 2.34 2.34 94 1006.9
20260507153423 20 115 0.0 1.6 0.00 2.34 2.34 95 1007.5
20260507152919 20 132 0.0 1.6 0.00 2.34 2.34 95 1007.5
20260507152415 20 132 1.6 1.6 0.18 2.34 2.34 95 1007.8
20260507151911 19 138 0.0 1.6 0.13 2.31 2.31 95 1007.7
20260507151408 19 118 1.6 3.2 0.30 2.31 2.31 96 1007.6
20260507150905 19 140 0.0 0.0 0.30 2.29 2.29 96 1007.9
20260507150402 19 136 0.0 0.0 0.30 2.26 2.26 96 1007.8
20260507145858 19 141 3.2 3.2 0.43 2.26 2.26 96 1007.8
20260507145354 19 101 1.6 3.2 1.27 2.24 2.24 96 1007.7
20260507144852 19 148 0.0 1.6 1.85 2.18 2.18 96 1007.8
20260507144349 19 133 1.6 1.6 1.85 2.01 2.01 95 1007.8
20260507143845 19 138 1.6 4.8 2.59 1.83 1.83 95 1007.8
20260507143343 19 124 0.0 1.6 3.35 1.63 1.63 95 1008.0
20260507142839 19 143 0.0 1.6 2.87 1.32 1.32 95 1008.3
20260507142335 20 116 0.0 0.0 1.27 1.02 1.02 95 1008.1
20260507141832 20 116 0.0 0.0 0.18 0.84 0.84 95 1008.1
20260507141328 20 116 0.0 0.0 0.00 0.81 0.81 95 1007.8
20260507140825 20 116 0.0 0.0 0.13 0.81 0.81 95 1008.1
20260507140322 20 116 0.0 0.0 0.13 0.81 0.81 95 1008.2
20260507135820 19 116 0.0 0.0 0.18 0.79 0.79 95 1008.1
20260507135317 19 118 0.0 0.0 0.00 0.76 0.76 95 1008.1
20260507134814 19 117 0.0 0.0 0.00 0.76 0.76 95 1008.4
20260507134310 19 117 0.0 0.0 0.00 0.76 0.76 95 1008.2
20260507133805 19 117 0.0 0.0 0.00 0.76 0.76 95 1008.2
20260507133302 19 117 0.0 0.0 0.00 0.76 0.76 95 1008.3
20260507132800 19 117 0.0 0.0 0.30 0.76 0.76 95 1008.2
20260507132256 19 117 0.0 0.0 0.30 0.74 0.74 95 1008.1
20260507131753 19 115 0.0 1.6 0.30 0.71 0.71 95 1008.0
20260507131250 19 130 0.0 0.0 0.18 0.69 0.69 95 1008.2
20260507130747 19 130 0.0 0.0 0.00 0.66 0.66 95 1008.1
20260507130245 19 130 0.0 0.0 0.00 0.66 0.66 95 1008.2
20260507125743 19 130 0.0 0.0 0.00 0.66 0.66 96 1008.3
20260507125240 19 130 0.0 0.0 0.00 0.66 0.66 96 1008.5
20260507124737 19 130 0.0 0.0 0.13 0.66 0.66 96 1008.4
20260507124234 19 131 0.0 0.0 0.13 0.66 0.66 96 1008.3
20260507123732 19 129 0.0 3.2 0.00 0.64 0.64 96 1008.2
20260507123230 19 133 0.0 0.0 0.00 0.64 0.64 96 1008.1
20260507122724 18 133 0.0 0.0 0.18 0.64 0.64 96 1008.3
20260507122221 18 123 0.0 0.0 0.00 0.61 0.61 96 1008.3
20260507121716 18 123 0.0 0.0 0.00 0.61 0.61 96 1008.4
20260507121213 18 123 0.0 0.0 0.00 0.61 0.61 96 1008.6
20260507120709 18 123 0.0 0.0 0.00 0.61 0.61 96 1008.5
20260507120206 18 123 0.0 0.0 0.00 0.61 0.61 96 1008.3
20260507115702 18 123 0.0 0.0 0.00 0.61 0.61 96 1008.4
20260507115158 18 123 0.0 0.0 0.00 0.61 0.61 96 1008.7
20260507114654 18 123 0.0 0.0 0.00 0.61 0.61 96 1008.7
20260507114151 18 123 0.0 0.0 0.00 0.61 0.61 96 1008.9
20260507113648 18 116 1.6 1.6 0.00 0.61 0.61 96 1008.6
20260507113145 18 140 0.0 1.6 0.00 0.61 0.61 96 1008.6
20260507112643 18 111 1.6 3.2 0.00 0.61 0.61 96 1008.7
20260507112139 18 132 0.0 1.6 0.00 0.61 0.61 96 1008.7
20260507111637 18 133 0.0 1.6 0.00 0.61 0.61 96 1008.7
20260507111133 18 133 0.0 0.0 0.00 0.61 0.61 96 1008.9
20260507110630 18 135 0.0 0.0 0.00 0.61 0.61 96 1008.7
20260507110126 18 131 0.0 3.2 0.00 0.61 0.61 96 1008.4
20260507105623 18 133 0.0 3.2 0.00 0.61 0.61 96 1008.4
20260507105119 18 120 0.0 1.6 0.13 0.61 0.61 96 1008.2
20260507104617 18 129 1.6 1.6 0.13 0.61 0.61 96 1008.4
20260507104113 18 123 0.0 0.0 0.00 0.58 0.58 96 1008.4
20260507103609 18 136 0.0 1.6 0.00 0.58 0.58 96 1008.4
20260507103106 18 136 0.0 0.0 0.00 0.58 0.58 96 1008.3
20260507102602 18 121 0.0 0.0 0.18 0.58 0.58 96 1008.3
20260507102059 18 145 1.6 1.6 0.18 0.58 0.58 96 1008.5
20260507101554 18 151 0.0 0.0 0.00 0.56 0.56 96 1008.3
20260507101051 18 151 0.0 0.0 0.00 0.56 0.56 96 1008.4
20260507100548 18 141 0.0 0.0 0.00 0.56 0.56 96 1008.3
20260507100046 18 141 0.0 0.0 0.00 0.56 0.56 95 1008.1
20260507095544 18 141 0.0 0.0 0.00 0.56 0.56 95 1008.3
20260507095040 18 141 0.0 0.0 0.00 0.56 0.56 95 1008.3
20260507094536 18 142 0.0 0.0 0.00 0.56 0.56 95 1008.5
20260507094034 18 142 0.0 0.0 0.13 0.56 0.56 95 1008.4
20260507093531 18 142 0.0 0.0 0.13 0.56 0.56 95 1008.1
20260507093030 18 144 0.0 1.6 0.00 0.53 0.53 96 1008.2
20260507092525 18 136 0.0 4.8 0.00 0.53 0.53 96 1008.3
20260507092022 18 135 1.6 1.6 0.00 0.53 0.53 96 1008.3
20260507091519 18 121 0.0 0.0 0.36 0.53 0.53 96 1008.6
20260507091015 18 138 0.0 1.6 0.36 0.53 0.53 96 1008.3
20260507090511 18 133 0.0 1.6 0.00 0.48 0.48 96 1008.2
20260507090008 18 130 0.0 0.0 0.00 0.48 0.48 96 1008.5
20260507085505 18 131 0.0 1.6 0.30 0.48 0.48 96 1008.4
20260507085002 18 88 3.2 4.8 0.30 0.46 0.46 96 1008.1
20260507084459 18 127 1.6 1.6 0.13 0.43 0.43 96 1008.5
20260507083955 18 127 0.0 1.6 0.18 0.41 0.41 95 1008.9
20260507083452 18 127 0.0 1.6 0.18 0.41 0.41 96 1008.9
20260507082948 18 127 0.0 0.0 0.00 0.38 0.38 95 1009.1
20260507082445 18 127 0.0 0.0 0.13 0.38 0.38 95 1009.2
20260507081941 18 127 0.0 0.0 0.30 0.38 0.38 95 1009.2
20260507081438 18 113 0.0 1.6 0.18 0.36 0.36 95 1008.5
20260507080935 18 108 0.0 0.0 0.13 0.33 0.33 95 1008.9
20260507080430 18 133 0.0 0.0 0.13 0.33 0.33 95 1008.2
20260507075926 18 133 0.0 0.0 0.18 0.30 0.30 95 1008.6
20260507075422 18 132 0.0 0.0 0.18 0.30 0.30 95 1009.0
20260507074919 18 133 0.0 0.0 0.00 0.28 0.28 95 1009.0
20260507074416 18 140 0.0 0.0 0.00 0.28 0.28 95 1009.5
20260507073914 18 140 0.0 0.0 0.00 0.28 0.28 95 1009.4
20260507073410 18 145 0.0 3.2 0.00 0.28 0.28 95 1009.5
20260507072907 18 130 1.6 1.6 0.00 0.28 0.28 95 1009.3
20260507072404 18 134 0.0 0.0 0.00 0.28 0.28 95 1009.3
20260507071902 18 125 0.0 0.0 0.00 0.28 0.28 95 1009.6
20260507071359 18 125 0.0 1.6 0.00 0.28 0.28 95 1009.3
20260507070855 18 133 0.0 0.0 0.00 0.28 0.28 95 1009.0
20260507070353 18 133 0.0 0.0 0.00 0.28 0.28 95 1009.3
20260507065849 18 133 0.0 0.0 0.00 0.28 0.28 95 1009.2
20260507065346 18 133 0.0 0.0 0.00 0.28 0.28 95 1009.6
20260507064843 18 133 1.6 1.6 0.00 0.28 0.28 94 1009.6
20260507064341 18 133 0.0 0.0 0.00 0.28 0.28 95 1010.0
20260507063839 18 133 0.0 1.6 0.00 0.28 0.28 94 1009.8
20260507063335 18 133 0.0 0.0 0.00 0.28 0.28 94 1010.2
20260507062832 18 133 0.0 1.6 0.00 0.28 0.28 94 1009.8
20260507062329 18 134 0.0 1.6 0.00 0.28 0.28 94 1010.2
20260507061827 18 134 0.0 0.0 0.00 0.28 0.28 94 1010.4
20260507061325 18 134 0.0 0.0 0.00 0.28 0.28 94 1010.5
20260507060824 18 134 0.0 0.0 0.00 0.28 0.28 94 1010.4
20260507060320 18 134 0.0 0.0 0.00 0.28 0.28 94 1010.1
20260507055817 18 134 0.0 0.0 0.00 0.28 0.28 94 1009.9
20260507055311 18 134 0.0 0.0 0.00 0.28 0.28 93 1009.8
20260507054808 18 134 0.0 0.0 0.00 0.28 0.28 93 1010.0
20260507054305 18 134 0.0 0.0 0.00 0.28 0.28 93 1009.8
20260507053802 18 134 0.0 0.0 0.00 0.28 0.28 93 1009.5
20260507053259 18 135 1.6 1.6 0.13 0.28 0.28 93 1009.7
20260507052759 18 135 0.0 1.6 0.48 0.28 0.28 92 1009.4
20260507052254 19 131 0.0 1.6 0.48 0.25 0.25 92 1010.0
20260507051753 19 132 1.6 4.8 0.30 0.20 0.20 92 1010.7
20260507051249 19 157 0.0 0.0 0.30 0.15 0.15 91 1010.7
20260507050746 19 158 0.0 1.6 0.30 0.13 0.13 89 1010.9
20260507050243 20 150 0.0 1.6 0.30 0.10 0.10 88 1011.6
20260507045740 20 121 0.0 1.6 0.30 0.08 0.08 86 1011.8
20260507045236 20 136 0.0 0.0 0.30 0.05 0.05 84 1011.9
20260507044733 20 130 0.0 4.8 0.18 0.03 0.03 81 1011.9
20260507044229 20 137 0.0 1.6 0.00 0.00 0.00 80 1011.8
20260507043726 20 105 0.0 1.6 0.00 0.00 0.00 80 1011.3
20260507043223 20 70 0.0 3.2 0.00 0.00 0.00 81 1011.2
20260507042719 20 115 0.0 0.0 0.00 0.00 0.00 82 1011.2
20260507042214 20 115 0.0 0.0 0.00 0.00 0.00 82 1011.0
20260507041712 20 115 0.0 1.6 0.00 0.00 0.00 81 1011.0
20260507041208 20 114 0.0 0.0 0.00 0.00 0.00 81 1011.2
20260507040705 20 114 0.0 0.0 0.00 0.00 0.00 79 1010.8
20260507040201 20 114 0.0 0.0 0.00 0.00 0.00 78 1010.7
20260507035657 21 114 0.0 0.0 0.00 0.10 0.10 76 1010.6
20260507035153 21 114 0.0 0.0 0.00 0.10 0.10 74 1010.2
20260507034650 21 114 0.0 0.0 0.00 0.10 0.10 73 1010.2
20260507034148 21 114 0.0 1.6 0.00 0.10 0.10 72 1010.1
20260507033646 21 114 0.0 0.0 0.00 0.10 0.10 72 1010.2
20260507033143 21 113 0.0 0.0 0.00 0.10 0.10 73 1010.5
20260507032641 21 113 0.0 0.0 0.00 0.10 0.10 73 1010.3
20260507032136 21 113 0.0 0.0 0.00 0.10 0.10 72 1010.6
20260507031633 21 131 0.0 0.0 0.00 0.10 0.10 72 1010.7
20260507031130 21 131 0.0 0.0 0.00 0.10 0.10 72 1010.4
20260507030627 21 127 0.0 0.0 0.00 0.10 0.10 71 1010.3
20260507030124 21 127 0.0 0.0 0.00 0.10 0.10 70 1010.5